This is the latest recevied weather packets stored in our database for station/object T10BNorth. If no packets are shown the sender has not sent any weather packets the latest 1 day(s).
| Time | Temp. | Humidity | Pressure | Rain* | Wind** | Luminosity | Snow |
|---|---|---|---|---|---|---|---|
| 1778022507 | 13.89° C | 94% | 1005.4 hPa | 0 mm | - | 25 W/m² | - |
| 1778022447 | 13.89° C | 93% | 1005.4 hPa | 0 mm | - | 25 W/m² | - |
| 1778022199 | 13.89° C | 95% | 1005.3 hPa | 0.25 mm | - | 32 W/m² | - |
| 1778022072 | 13.89° C | 95% | 1005.1 hPa | 0.51 mm | - | 33 W/m² | - |
| 1778021890 | 13.89° C | 95% | 1005.5 hPa | 0.76 mm | - | 32 W/m² | - |
| 1778021709 | 13.89° C | 94% | 1005.4 hPa | 1.02 mm | - | 32 W/m² | - |
| 1778021330 | 13.89° C | 94% | 1005.5 hPa | 1.52 mm | - | 37 W/m² | - |
| 1778021211 | 13.89° C | 94% | 1005.5 hPa | 1.78 mm | - | 33 W/m² | - |
| 1778021146 | 13.89° C | 93% | 1005.6 hPa | 1.78 mm | - | 40 W/m² | - |
| 1778021086 | 13.89° C | 95% | 1005.5 hPa | 1.78 mm | - | 49 W/m² | - |
| 1778020409 | 13.89° C | 95% | 1005.1 hPa | 2.29 mm | - | 90 W/m² | - |
| 1778020224 | 13.89° C | 95% | 1005 hPa | 2.29 mm | - | 62 W/m² | - |
| 1778020161 | 13.89° C | 95% | 1005 hPa | 2.29 mm | - | 53 W/m² | - |
| 1778020103 | 13.89° C | 95% | 1005 hPa | 2.29 mm | - | 47 W/m² | - |
| 1778019923 | 13.89° C | 94% | 1005 hPa | 2.29 mm | - | 35 W/m² | - |
| 1778019860 | 13.89° C | 95% | 1005.1 hPa | 2.29 mm | - | 32 W/m² | - |
| 1778019739 | 13.89° C | 95% | 1005.1 hPa | 2.29 mm | - | 39 W/m² | - |
| 1778019422 | 13.89° C | 93% | 1004.9 hPa | 2.29 mm | - | 100 W/m² | - |
| 1778019300 | 13.89° C | 93% | 1004.9 hPa | 2.29 mm | - | 102 W/m² | - |
| 1778019241 | 13.89° C | 93% | 1004.9 hPa | 2.29 mm | - | 88 W/m² | - |
| 1778019119 | 13.89° C | 92% | 1004.8 hPa | 2.29 mm | - | 54 W/m² | - |
| 1778018751 | 13.89° C | 89% | 1004.8 hPa | 2.29 mm | - | 54 W/m² | - |
| 1778018679 | 13.89° C | 89% | 1004.7 hPa | 2.03 mm | - | 39 W/m² | - |
| 1778018559 | 14.44° C | 88% | 1004.8 hPa | 2.03 mm | - | 30 W/m² | - |
| 1778018502 | 14.44° C | 88% | 1005 hPa | 1.78 mm | - | 28 W/m² | - |
* Rain latest hour (hover to see other rain measurements)
** Current wind speed in m/s (hover to see current wind gust speed)